loading
DOY 198 | 2024-07-16T11:46:11Z

THOR ABLESTAR DEB, 225

Orbit data source: Space-Track

THOR ABLESTAR DEB, 225 is space debris in LEO originally from a launch on Thu, 29 Jun 1961 UTC launched from the Air Force Eastern Test Range (AFETR). Debris objects in space refer to the collection of defunct objects orbiting the Earth. Examples of debris include non-operational satellites, rocket bodies, and fragments generated from explosions, collisions, or faulty payload assembly.

Loading next visibility...
Loading greatness...
THOR ABLESTAR DEB details
NORAD ID225
COSPAR ID
1961-015BM
Orbit
LEO
Last TLE update20 hours ago
Origin
Flag of USUSAF SSD (US)
ManufacturerUnknown
BusUnknown
MotorUnknown
MassWet unknown, Dry mass unknown
Launch date (UTC)
1961-06-29 (63 years ago)
Launch vehicleUnknown
Launch site
Air Force Eastern Test Range (AFETR)
Object type
Payload
Rocket body
Debris
Radar Cross SectionSmall (<0.1 m²)
Predictive object data (real-time)
Latitude-50.53709°
Longitude-32.42734°
Altitude853.106 km
Speed7.395 km/s
Apparent Right ascension11h 06m 12s
Apparent Declination-47° 13' 23"
Sunlit
Object is in daylight
Predictive observer data (real-time)
Local Sidereal Time00:24:57
Azimuth123.714° SE
Elevation-74.036°
Doppler factor1
Orbital elements
Apogee847.292 km
Perigee701.448 km
Semi-major axis7,152.507 km
Eccentricity0.0101953
Inclination66.7994°
RAAN296.493°
Arg. of periapsis20.9366°
True anomaly339.17388°
Mean anomaly339.5863°
Mean motion3.58803 °/min
BSTAR0.00067183
Period100.33 mins
Definitive object data (Epoch: 2024-07-15T16:15:53.031Z)
Latitude-0.00004°
Longitude118.51454°
Altitude709.856 km
Speed7.537 km/s
True Right ascension19h 45m 58s
True Declination0° 00' 00"
Sunlit
Object was in full shadow at TLE epoch
TLE from 20 hours ago
0 THOR ABLESTAR DEB
1 00225U 61015BM  24197.67769712  .00001933  00000-0  67183-3 0  9994
2 00225  66.7994 296.4930 0101953  20.9366 339.5863 14.34715936256935
Epoch: 2024-07-15T16:15Z
No data available

THOR ABLESTAR DEB Visibility forecast

Observer location: 39.9160978°, -105.1181434

THOR ABLESTAR DEB is not visible in the next 10 days
Span
Click to sort rows by Start time (UTC) header in descending order
Start Az.
Max El. time (UTC)
Max El. Az.
Max El.
End time (UTC)
End Az.